Back to catalog

SCOUT G-1 DEB

AlivePO
NORAD 29211·DEBRIS·🇺🇸 United States

Launched Sep 16, 1987 from Vandenberg Space Force Base

Loading…

Next Passes (next 24 hours)

TLE

FreshSource: Space-Track

Epoch: Sep 14, 2026, 08:47 UTC

1 29211U 87080P   26257.36603813  .00004031  00000-0  18046-2 0  9999
2 29211  90.3147 122.7330 0068388  93.6660 267.2355 14.21214403116046

Track SCOUT G-1 DEB in real time with AllMySat

Download on the App Store